Regional Weather Roundup
Issued by NWS

Home | Current Version | Previous Version | Graphics & Text | Print | Product List | Glossary On
Versions: 1 2 3 4 5 6 7 8 9 10 11 12 13 14 15 16 17 18 19 20 21 22 23 24 25 26 27 28 29 30 31 32 33 34 35 36 37 38 39 40 41 42 43 44 45 46 47 48 49 50
000
ASUS43 KDTX 260110
RWRMI
MICHIGAN HOURLY REGIONAL WEATHER ROUNDUP
NATIONAL WEATHER SERVICE DETROIT/PONTIAC MI
ISSUED BY NATIONAL WEATHER SERVICE GRAND RAPIDS MI
900 PM EDT SUN JUN 25 2017

NOTE: "FAIR" INDICATES FEW OR NO CLOUDS BELOW 12,000 FEET WITH NO
SIGNIFICANT WEATHER AND/OR OBSTRUCTION TO VISIBILITY.

MIZ047>049-052>055-059>063-066>070-074>076-081>083-260200-
SOUTHEAST LOWER MICHIGAN

CITY           SKY/WX    TMP DP  RH WIND       PRES   REMARKS
ADRIAN         CLEAR     66  44  45 NW5       30.06R
ALMA           CLOUDY    62  53  71 SW5G18    30.03S
ANN ARBOR      CLEAR     64  46  52 SW8       30.03S
BAD AXE        CLOUDY    62  52  70 W7        29.99S
DETROIT CITY   MOCLDY    64  51  62 NW6       30.03R
DETROIT        MOCLDY    67  45  45 W9        30.03S
FLINT          CLOUDY    62  51  67 W12       30.02S
GROSSE ILE     CLEAR     67  47  49 W6        30.02S
HILLSDALE      CLEAR     61  43  51 W6        30.06S
HOWELL         PTCLDY    63  45  52 W7        30.04R

CITY           SKY/WX    TMP DP  RH WIND       PRES   REMARKS
JACKSON        CLEAR     64  44  48 W6        30.05R
LANSING        PTCLDY    65  45  48 W9        30.05R
MASON          CLEAR     64  47  53 W8        30.05R
MONROE         CLEAR     65  46  50 W6        30.03S
MT. CLEMENS    MOCLDY    61  54  77 W6        30.00S
PONTIAC        MOCLDY    60  54  80 W6        30.02S
PORT HOPE        N/A     61  53  75 W5        29.96R
PORT HURON     CLOUDY    61  48  63 SW3       30.02S
TRI CITIES     CLOUDY    62  53  72 W8        30.01S
YPSILANTI      CLEAR     68  45  43 W12       30.04R
$$
MIZ043>046-050>051-056>058-064>065-071>073-077>080-260200-
SOUTHWEST LOWER MICHIGAN

CITY           SKY/WX    TMP DP  RH WIND       PRES   REMARKS
BATTLE CREEK   CLEAR     64  46  52 W9        30.07R
BENTON HARBOR  PTCLDY    66  49  54 W9        30.07R
BIG RAPIDS     CLOUDY    60  50  69 W6        30.01S
COLDWATER      PTCLDY    65  42  42 W7        30.07R
HOLLAND        MOCLDY    65  52  62 W9        30.06R
GRAND RAPIDS   MOCLDY    65  49  56 W10       30.04R
KALAMAZOO      CLEAR     66  43  43 W6        30.07R
MARSHALL       MOCLDY    65  45  49 W8        30.06R
MOUNT PLEASANT MOCLDY    62  50  66 W5        30.01R
MUSKEGON       PTCLDY    62  54  74 SW5       30.04S
STURGIS        PTCLDY    65  47  51 W5        30.06S
$$
MIZ016>042-260200-
NORTHERN LOWER MICHIGAN

CITY           SKY/WX    TMP DP  RH WIND       PRES   REMARKS
ALPENA         CLOUDY    59  58  96 CALM      29.98S
BEAVER ISLAND  LGT RAIN  57  55  90 W7        29.99S
BELLAIRE       PTCLDY    59  52  77 CALM      30.00R
CADILLAC       PTCLDY    58  51  79 W5        30.00S
CHARLEVOIX     MOCLDY    58  53  81 W6        30.02S
GAYLORD        CLEAR     59  47  64 W8        29.99R
HOUGHTON LAKE  CLOUDY    61  50  67 W7        30.00R
MANISTEE       RAIN      57  54  89 W9        30.01R
OSCODA         CLOUDY    59  56  89 W7        29.97S
PELLSTON       CLOUDY    59  51  75 W6        29.99R
TRAVERSE CITY  MOCLDY    63  51  65 NW10      29.98R
LUDINGTON      CLOUDY    60  55  82 NW3       30.02R
$$
MIZ007>008-015-260200-
EASTERN UPPER MICHIGAN

CITY           SKY/WX    TMP DP  RH WIND       PRES   REMARKS
KINROSS        MOCLDY    59  50  72 N5        29.98S
MACKINAC ISLAN CLOUDY    56  56 100 NW6       29.98R
NEWBERRY       PTCLDY    57  52  83 N3        29.98S
S. S. MARIE    CLOUDY    58  53  84 E3        29.97R
$$
MIZ004>006-011>014-085-260200-
CENTRAL UPPER MICHIGAN

CITY           SKY/WX    TMP DP  RH WIND       PRES   REMARKS
MANISTIQUE     CLOUDY    59  56  89 CALM      29.97S
ESCANABA       LGT RAIN  55  53  93 NW8       29.99S
MENOMINEE      PTCLDY    59  55  87 MISG      30.00S
SAWYER-GWINN   LGT RAIN  52  50  93 NW3       30.02R
$$
MIZ001>003-009>011-084-260200-
WESTERN UPPER MICHIGAN

CITY           SKY/WX    TMP DP  RH WIND       PRES   REMARKS
IRON MOUNTAIN  LGT RAIN  54  50  86 N5        30.00S
HOUGHTON       LGT RAIN  53  50  89 S7        30.01R
COPPER HARBOR    N/A     53  47  79 CALM      29.99S
IRONWOOD       CLOUDY    51  48  89 W9        30.05F
$$

ABBREVIATIONS USED IN REMARKS
   TC - TEMPERATURE IN CELSIUS
  WCI - WIND CHILL INDEX
   HX - HEAT INDEX
  VSB - VISIBILITY




USA.gov is the U.S. government's official web portal to all federal, state and local government web resources and services.